Location: Stamford Observatory
(41.1241°N, 73.5498°W)
Time: 14:07:37
(UTC-04:00)

Daily predictions for brighter satellites

Satellite Brightness Start Highest point End
(mag) Time Altitude Azimuth Time Altitude Azimuth Time Altitude Azimuth
USA 229 DEB 3.9 20:49:53 10° SW 20:56:50 84° NW 21:03:52 10° NE
USA 229 3.9 20:49:59 10° SW 20:56:56 85° NW 21:03:59 10° NE
S3M 4.1 20:50:55 10° N 20:57:04 82° W 21:03:11 10° S
Cosmos 1680 Rocket 3.9 20:52:48 10° N 20:57:55 52° ENE 21:03:03 10° SE
Cosmos 2228 Rocket 4.1 20:56:48 10° NNW 21:01:09 50° W 21:05:32 10° SSW
H-2A R/B 4.4 21:00:30 10° ENE 21:01:10 10° NE 21:01:50 10° NE
Cosmos 923 Rocket 4.0 20:57:44 10° NNW 21:02:58 75° ENE 21:08:09 10° SSE
Cosmos 304 Rocket 4.0 20:58:30 10° NNW 21:03:17 60° ENE 21:08:01 10° SSE
SJ-11-01 4.3 21:00:09 10° SSE 21:04:52 83° ENE 21:09:38 10° NNW
CZ-4 DEB 4.0 21:03:41 10° S 21:06:45 42° W 21:09:50 10° NNW
Cosmos 1908 3.2 21:03:34 10° N 21:07:29 74° E 21:11:24 10° SSE
SPOT 5 3.5 21:03:33 10° SE 21:07:52 40° ENE 21:12:24 10° N
Delta 2 Rocket 3.8 21:04:35 10° WSW 21:08:01 33° S 21:11:10 10° ESE
PSLV R/B 4.4 21:06:54 10° SE 21:09:32 26° ENE 21:12:08 10° NNE
Cosmos 1674 2.7 21:07:45 10° S 21:11:34 76° E 21:15:27 10° N
Cosmos 773 Rocket 4.3 21:07:10 10° NNW 21:12:21 71° WSW 21:17:34 10° S
Cosmos 2151 3.1 21:09:29 10° S 21:13:34 54° E 21:17:41 10° NNE
deb Chang Zheng 4 3.5 21:11:15 10° NNE 21:15:36 77° ESE 21:19:56 10° S
NOSS 3-1 (A) 3.9 21:11:16 10° S 21:16:31 36° ESE 21:22:14 10° NE
Cosmos 2227 Rocket 3.9 21:14:28 10° SE 21:17:11 14° E 21:19:55 10° ENE
Nimbus 7 Rocket 4.4 21:12:23 10° NNE 21:18:12 63° ESE 21:24:00 10° S
YAOGAN 6 3.9 21:15:41 10° SE 21:18:43 26° ENE 21:21:45 10° NNE
Cosmos 2058 3.4 21:19:46 10° SSE 21:23:36 40° E 21:27:27 10° NNE
SWAS 4.5 21:20:41 10° NNW 21:25:02 80° ENE 21:29:10 11° SSE
Cosmos 1300 3.6 21:22:12 10° N 21:25:44 34° ENE 21:28:45 13° SE
Cosmos 883 Rocket 4.5 21:20:30 10° N 21:26:45 85° E 21:32:52 10° S
DELTA 2 R/B(2) 3.3 21:26:11 10° WSW 21:27:44 43° SSE 21:29:44 11° E
Sich 1 4.0 21:26:07 11° SSE 21:29:51 30° E 21:33:42 10° NNE
Cosmos 2333 Rocket 3.6 21:28:02 10° N 21:32:48 26° NE 21:37:23 11° ESE
Cosmos 1633 Rocket 3.9 21:31:19 12° SSE 21:34:51 32° E 21:38:44 10° NNE
Cosmos 1151 Rocket 3.5 21:31:39 10° NNW 21:35:54 60° W 21:40:09 10° S
MetOp-A 4.2 21:30:57 10° SSE 21:36:09 65° ENE 21:41:27 10° N
Cosmos 1437 3.1 21:33:28 10° SSW 21:36:44 68° W 21:40:01 10° N
USA 245 3.6 21:38:04 18° ESE 21:39:03 23° ENE 21:40:58 10° NNE
ATLAS 2AS CENTAUR R/B 3.9 21:33:20 10° SSE 21:39:04 25° ESE 21:45:08 10° ENE
Cosmos 2297 Rocket 3.7 21:42:05 14° ESE 21:43:56 16° E 21:47:18 10° ENE
COSMOS 2428 2.7 21:39:16 10° NNW 21:44:58 76° ENE 21:49:36 16° SSE
ARGOS 3.7 21:40:45 15° SE 21:45:00 45° ENE 21:50:07 10° N
ERS-1 Rocket 4.3 21:41:51 10° SSW 21:46:30 38° W 21:51:12 10° NNW
Cosmos 1455 4.2 21:45:45 10° NE 21:47:59 15° ENE 21:49:25 13° E
Envisat 3.4 21:43:05 10° S 21:48:06 62° W 21:53:09 10° NNW
Cosmos 2219 Rocket 2.9 21:43:44 10° N 21:49:02 41° ENE 21:53:00 17° ESE
Cosmos 1939 Rocket 4.0 21:45:37 10° S 21:49:19 40° W 21:53:01 10° NNW
Terra 3.4 21:47:49 13° ESE 21:50:37 21° ENE 21:54:09 10° NNE
Cosmos 1805 Rocket 3.5 21:46:31 10° S 21:50:59 84° E 21:55:26 10° N
ATLAS 3B R/B 4.2 21:45:52 10° NNW 21:51:41 26° NE 21:57:11 10° E
ERBS 3.4 21:49:50 16° S 21:51:44 25° SE 21:54:38 10° ENE
Cosmos 2315 Rocket 4.1 21:52:55 10° N 21:59:07 76° W 22:05:17 10° S
Cosmos 1726 2.1 21:57:40 10° N 22:01:28 74° E 22:03:46 22° SSE
NOSS 3-1 (C) 3.5 21:56:32 10° SW 22:02:23 83° NW 22:08:56 10° NNE
SL-23 DEB 4.3 21:58:26 10° WNW 22:03:12 49° SW 22:04:59 24° SSE
SL-08 RB Rocket 4.0 22:00:48 22° SE 22:03:31 52° ENE 22:07:54 10° N
CZ-3A R/B 4.4 21:43:37 10° WSW 22:04:10 28° SSW 22:07:48 18° SSE
CZ-4 SHROUD 4.3 22:02:06 14° SSW 22:04:30 41° W 22:07:30 10° NNW
OTV 4 2.6 22:03:20 10° SSW 22:04:07 14° SSW 22:04:07 14° SSW
OAO 2 Rocket 4.0 22:01:04 10° SW 22:05:57 37° SSE 22:09:07 19° ESE
Cosmos 2237 4.4 22:00:47 10° NNW 22:06:29 69° WSW 22:10:48 18° S
H-2A R/B 3.9 22:03:42 10° SSW 22:07:36 28° W 22:11:31 10° NW
Cosmos 1937 Rocket 3.5 22:02:33 10° S 22:07:39 58° ESE 22:12:46 10° NNE
Cosmos 220 Rocket 4.2 22:04:31 16° S 22:07:52 54° ESE 22:12:12 10° NNE
Meteor 2-11 Rocket 4.5 22:02:52 10° N 22:09:03 88° W 22:14:04 16° S
Cosmos 1980 4.3 22:04:23 10° NNW 22:09:48 44° ENE 22:13:10 21° ESE
Cosmos 1707 Rocket 3.8 22:05:37 10° NNW 22:09:57 70° W 22:13:15 17° S
Cosmos 1666 Rocket 3.7 22:09:24 10° SSW 22:13:42 75° W 22:18:10 10° N
Meteor 2-10 4.4 22:08:24 10° N 22:14:04 60° ENE 22:17:31 24° SSE
Cosmos 2298 Rocket 4.2 22:08:50 10° SSW 22:14:09 75° WNW 22:19:30 10° NNE
Cosmos 2219 4.2 22:10:45 10° SW 22:16:18 49° WNW 22:21:53 10° NNE
Cosmos 990 Rocket 4.2 22:13:36 20° S 22:16:56 49° ESE 22:21:54 10° NNE
Tiangong 1 0.9 22:13:50 10° WSW 22:16:56 88° S 22:18:55 20° ENE
CZ-4 R/B 3.8 22:13:23 10° NNE 22:18:20 76° ESE 22:22:06 17° S
Nadezhda 1 Rocket 4.2 22:13:04 10° N 22:19:01 53° E 22:22:31 25° SE
Meteor 1-4 Rocket 2.5 22:15:47 10° N 22:19:33 87° E 22:21:10 32° S
Cosmos 2237 Rocket 2.6 22:16:35 10° NNW 22:22:09 51° ENE 22:25:15 25° SE
CZ-4C R/B 3.2 22:21:28 37° SE 22:22:33 55° ENE 22:25:58 10° N
Cosmos 2333 4.4 22:18:15 10° NNW 22:23:56 67° WSW 22:27:36 23° S
Cosmos 1271 Rocket 2.7 22:23:00 10° N 22:26:52 83° WSW 22:28:33 33° S
Cosmos 2082 3.9 22:23:04 19° S 22:27:00 54° ESE 22:32:34 10° NNE
Cosmos 1470 Rocket 3.6 22:25:29 31° SSE 22:27:21 59° E 22:31:37 10° NNE
Cosmos 1933 Rocket 3.7 22:26:29 30° SSE 22:28:29 59° E 22:32:52 10° NNE
SL-08 R/B 4.5 22:23:34 15° S 22:28:51 87° E 22:35:12 10° N
CZ-4B R/B 4.0 22:25:08 10° N 22:30:21 61° WNW 22:35:26 10° SSW
Cosmos 1745 Rocket 3.9 22:27:24 19° S 22:32:05 80° E 22:38:16 10° N
Cosmos 2360 Rocket 4.2 22:28:09 10° NW 22:32:14 21° W 22:36:18 10° SSW
NOSS 0 Rocket 3.9 22:27:50 10° NNW 22:34:02 84° ENE 22:37:22 29° SSE
Cosmos 1703 3.3 22:32:28 26° SSW 22:34:36 75° W 22:38:31 10° N
Iridium 2 3.6 22:33:22 34° S 22:34:57 90° W 22:38:49 10° N
NOAA 11 4.4 22:32:40 23° S 22:36:08 68° WSW 22:41:36 10° NNW
H-2A R/B 2.2 22:36:57 31° SSE 22:39:34 72° ENE 22:45:00 10° N
Cosmos 1626 2.1 22:41:26 50° SSE 22:42:12 65° E 22:45:56 10° NNE
SeaSat 1 4.4 22:46:37 13° E 22:49:23 20° NE 22:52:52 10° N
Cosmos 1386 Rocket 4.3 22:51:00 27° S 22:54:29 87° E 23:00:32 10° N
Lacrosse 4 Rocket 2.6 22:53:06 10° NNW 22:57:12 35° NE 22:58:32 29° E
Cosmos 1125 Rocket 3.8 22:56:55 40° SSE 22:58:16 50° ESE 23:03:25 10° NNE
Cosmos 2227 Rocket 2.3 22:55:43 15° SSW 23:00:27 79° WNW 23:06:10 10° NNE
Cosmos 389 Rocket 4.4 22:58:46 10° NNE 23:01:12 19° ENE 23:01:12 19° ENE
Cosmos 1862 Rocket 3.8 23:04:36 10° NNW 23:08:53 60° W 23:10:02 43° SSW
CARTOSAT-1 3.9 23:08:07 43° SSW 23:09:15 59° W 23:13:32 10° NNW
Cosmos 2181 Rocket 4.2 23:03:19 10° N 23:09:40 61° E 23:12:03 38° SE
Spot 2 4.3 23:04:57 10° NNE 23:10:04 89° E 23:11:50 41° SSW
COSMOS 2455 3.0 23:05:45 10° NNW 23:11:45 65° ENE 23:14:03 38° SE
SAR-Lupe-2 3.8 23:15:11 56° WSW 23:15:21 57° W 23:18:53 10° NNW
SL-16 R/B 2.4 23:10:44 10° NNW 23:16:22 62° ENE 23:18:12 41° SE
Cosmos 1933 3.3 23:12:55 10° N 23:16:59 67° E 23:17:12 65° ESE
Cosmos 2333 Rocket 2.7 23:11:47 10° NW 23:17:20 51° WSW 23:19:24 35° SSW
Cosmos 372 Rocket 4.4 23:18:28 43° ESE 23:18:54 44° ESE 23:23:52 10° NNE
Cosmos 1455 3.3 23:20:22 10° NNW 23:23:50 34° W 23:24:28 32° WSW
Cosmos 44 Rocket 3.7 23:23:54 46° ESE 23:23:54 46° ESE 23:28:52 10° NE
FALCON 9 R/B 3.4 23:02:55 10° W 23:24:17 58° SSW 23:27:16 36° SE
BREEZE-M DEB (TANK) 2.9 23:23:34 10° WNW 23:25:19 55° NW 23:25:19 55° NW
Cosmos 2297 Rocket 2.4 23:23:49 24° SW 23:27:19 68° WNW 23:32:59 10° NNE
Terra 2.6 23:26:42 34° SW 23:28:02 42° W 23:32:35 10° NNW
ERBS 4.2 23:25:18 10° WSW 23:28:28 31° NW 23:31:37 10° NNE
ATLAS 2AS CENTAUR R/B 3.1 23:21:46 10° SW 23:29:16 75° NW 23:37:23 10° NNE
Cosmos 2219 Rocket 3.6 23:28:06 10° NW 23:32:45 27° WSW 23:34:43 22° SW
H-2A R/B 4.2 23:30:00 10° NE 23:32:31 21° ENE 23:32:31 21° ENE
Cosmos 1869 Rocket 3.4 23:36:29 76° SSE 23:36:49 84° E 23:41:18 10° N
Aureole 2 Rocket 4.1 23:35:51 10° N 23:38:01 26° NE 23:38:01 26° NE
ATLAS 3B R/B 2.6 23:36:13 10° NW 23:43:13 81° WSW 23:45:16 48° SSE
CZ-4C R/B 4.5 23:45:36 30° NE 23:45:36 30° NE 23:48:16 10° N
Cosmos 1900 4.3 23:41:02 10° NW 23:45:57 63° WSW 23:46:21 60° SW
COS B Rocket 3.4 23:45:45 10° N 23:49:36 70° W 23:49:36 70° W
Cosmos 1603 4.4 23:44:54 10° NNW 23:50:22 46° ENE 23:52:01 36° ESE
ALOS 2 3.4 23:52:44 39° ENE 23:52:55 39° ENE 23:57:00 10° N
Tiangong 1 3.9 23:50:34 10° W 23:51:01 13° WNW 23:51:01 13° WNW
